This is the latest recevied weather packets stored in our database for station/object EA1GEC-10. If no packets are shown the sender has not sent any weather packets the latest 10 day(s).
| Time | Temp. | Humidity | Pressure | Rain* | Wind** | Luminosity | Snow |
|---|---|---|---|---|---|---|---|
| 1777722207 | 19.44° C | 56% | 1022.2 hPa | - | - | - | - |
| 1777721307 | 20° C | 55% | 1022.4 hPa | - | - | - | - |
| 1777720406 | 20.56° C | 56% | 1022.8 hPa | - | - | - | - |
| 1777719506 | 19.44° C | 57% | 1022.8 hPa | - | - | - | - |
| 1777718606 | 20.56° C | 57% | 1022.8 hPa | - | - | - | - |
| 1777717706 | 20° C | 58% | 1022.9 hPa | - | - | - | - |
| 1777715916 | 19.44° C | 61% | 1023.1 hPa | - | - | - | - |
| 1777715006 | 17.78° C | 63% | 1023.3 hPa | - | - | - | - |
| 1777714105 | 18.33° C | 64% | 1023.4 hPa | - | - | - | - |
| 1777713205 | 17.22° C | 66% | 1023.4 hPa | - | - | - | - |
| 1777712305 | 16.67° C | 67% | 1023.5 hPa | - | - | - | - |
| 1777711405 | 17.78° C | 67% | 1023.4 hPa | - | - | - | - |
| 1777710505 | 17.22° C | 68% | 1023.3 hPa | - | - | - | - |
| 1777709605 | 17.22° C | 68% | 1023.4 hPa | - | - | - | - |
| 1777708705 | 16.67° C | 71% | 1023.4 hPa | - | - | - | - |
| 1777707814 | 15.56° C | 73% | 1023.4 hPa | - | - | - | - |
| 1777706904 | 15° C | 74% | 1023.4 hPa | - | - | - | - |
| 1777706004 | 15° C | 75% | 1023.4 hPa | - | - | - | - |
| 1777705104 | 15° C | 77% | 1023.3 hPa | - | - | - | - |
| 1777704204 | 15° C | 78% | 1023.4 hPa | - | - | - | - |
| 1777703304 | 15° C | 80% | 1023.4 hPa | - | - | - | - |
| 1777702404 | 14.44° C | 80% | 1023.4 hPa | - | - | - | - |
| 1777701504 | 14.44° C | 80% | 1023.3 hPa | - | - | - | - |
| 1777700604 | 14.44° C | 80% | 1023.3 hPa | - | - | - | - |
| 1777699704 | 14.44° C | 80% | 1023.1 hPa | - | - | - | - |
* Rain since midnight (hover to see other rain measurements)
** Current wind speed in m/s (hover to see current wind gust speed)